WA1HRH Weather Reports


time (UTC)temp
F
wind
direction
speed
knots
gust
knots
rain 1hr
in
rain 24hr
in
rain mn
in
humidity
%
barometer
mb
20260507040026 42 63 0.0 0.0 0.01 0.97 0.00 97 1009.8
20260507034527 43 63 0.0 0.0 0.02 0.97 0.97 97 1010.2
20260507033006 43 63 0.0 1.7 0.03 0.97 0.97 96 1010.3
20260507031506 43 63 0.0 0.9 0.03 0.96 0.96 96 1010.3
20260507030009 43 1 0.0 5.2 0.04 0.96 0.96 96 1010.5
20260507024510 43 55 0.0 0.9 0.05 0.95 0.95 96 1010.7
20260507023007 43 55 0.0 4.3 0.05 0.94 0.94 96 1010.7
20260507021510 44 84 0.0 1.7 0.05 0.93 0.93 96 1010.7
20260507020010 44 84 0.0 0.0 0.05 0.92 0.92 97 1010.4
20260507014517 44 84 0.0 0.0 0.05 0.90 0.90 97 1010.3
20260507013017 44 53 0.0 2.6 0.06 0.89 0.89 97 1010.0
20260507011514 45 53 0.0 1.7 0.07 0.88 0.88 97 1010.2
20260507010013 45 53 0.0 0.0 0.06 0.87 0.87 97 1009.8
20260507004510 45 53 0.0 1.7 0.04 0.85 0.85 97 1009.8
20260507003013 45 53 0.0 0.0 0.03 0.83 0.83 97 1009.4
20260507001510 46 53 0.0 0.0 0.03 0.81 0.81 97 1009.5
20260507000013 46 53 0.0 0.0 0.04 0.81 0.81 97 1009.3
20260506234516 46 53 0.0 0.0 0.04 0.81 0.81 97 1009.3
20260506233012 46 53 0.0 0.0 0.03 0.80 0.80 97 1009.3
20260506231512 46 53 0.0 0.0 0.02 0.78 0.78 96 1009.1
20260506230014 47 53 0.0 0.0 0.02 0.77 0.77 96 1009.1
20260506224515 47 53 0.0 0.0 0.07 0.77 0.77 96 1008.9
20260506223014 47 53 0.0 1.7 0.14 0.77 0.77 96 1008.8
20260506221514 47 53 0.0 1.7 0.14 0.76 0.76 95 1008.8
20260506220015 47 49 0.0 3.5 0.16 0.76 0.75 94 1008.7
20260506214529 48 359 0.9 6.1 0.12 0.73 0.70 93 1008.2
20260506213019 48 260 0.9 4.3 0.07 0.71 0.63 93 1008.0
20260506211516 49 80 0.0 4.3 0.06 0.72 0.62 92 1007.8
20260506210019 50 81 0.0 6.1 0.03 0.70 0.58 93 1007.6
20260506204516 52 290 0.0 5.2 0.03 0.74 0.58 93 1007.4
20260506203019 53 139 0.0 0.9 0.01 0.75 0.56 96 1007.3
20260506201516 53 139 0.0 0.9 0.02 0.75 0.56 95 1007.4
20260506200016 54 139 0.0 0.9 0.03 0.75 0.56 97 1007.5
20260506194518 53 139 0.0 1.7 0.04 0.74 0.55 97 1007.7
20260506193014 53 139 0.0 0.0 0.06 0.74 0.55 96 1007.8
20260506191518 54 139 0.0 0.0 0.09 0.73 0.54 97 1007.9
20260506190018 54 139 0.0 0.0 0.11 0.72 0.52 96 1008.0
20260506184539 54 139 0.0 3.5 0.12 0.70 0.51 96 1008.0
20260506183028 55 134 0.0 5.2 0.13 0.68 0.49 97 1008.2
20260506181517 56 350 0.0 0.0 0.11 0.64 0.45 98 1008.3
20260506180025 56 350 0.0 0.0 0.09 0.61 0.42 98 1008.7
20260506174503 56 350 0.0 0.9 0.08 0.58 0.39 97 1008.8
20260506173009 56 350 0.0 0.0 0.06 0.55 0.36 97 1008.9
20260506171514 55 350 0.0 0.0 0.05 0.52 0.34 97 1008.9
20260506170020 55 350 0.0 0.0 0.05 0.52 0.33 97 1008.9
20260506164508 55 350 0.0 0.0 0.04 0.50 0.31 97 1009.0
20260506163008 55 350 0.0 0.0 0.05 0.49 0.30 97 1009.1
20260506161513 54 350 0.0 0.0 0.05 0.48 0.29 97 1009.5
20260506160017 54 350 0.0 0.0 0.06 0.47 0.28 97 1009.9
20260506154522 54 350 0.0 0.0 0.06 0.46 0.27 98 1010.2
20260506153015 53 350 0.0 0.0 0.05 0.44 0.25 98 1010.3
20260506151508 53 350 0.0 1.7 0.04 0.43 0.24 98 1010.6
20260506150013 54 350 0.0 0.0 0.02 0.41 0.22 98 1010.5
20260506144521 53 350 0.0 0.0 0.02 0.40 0.21 98 1010.8
20260506143023 54 350 0.0 0.0 0.01 0.39 0.20 98 1010.6
20260506141504 53 350 0.0 0.9 0.02 0.39 0.20 98 1010.5
20260506140009 53 350 0.0 0.9 0.03 0.39 0.20 98 1010.5
20260506134514 53 350 0.0 0.0 0.02 0.38 0.19 98 1010.4
20260506133021 53 350 0.0 0.9 0.02 0.38 0.19 98 1010.7
20260506131533 53 350 0.0 0.0 0.01 0.37 0.18 99 1011.0
20260506130009 52 350 0.0 0.0 0.00 0.36 0.17 98 1010.8
20260506124513 52 350 0.0 0.0 0.00 0.36 0.17 98 1010.9
20260506123018 52 350 0.0 0.0 0.00 0.36 0.17 98 1011.1
20260506121520 52 350 0.0 0.0 0.00 0.36 0.17 98 1011.0
20260506120024 52 350 0.0 0.0 0.00 0.36 0.17 98 1011.1
20260506114518 52 350 0.0 0.0 0.00 0.36 0.17 99 1011.0
20260506113031 52 350 0.0 0.0 0.00 0.36 0.17 99 1011.1
20260506111520 52 350 0.0 0.9 0.00 0.36 0.17 98 1011.3
20260506110024 51 350 0.0 0.0 0.00 0.36 0.17 98 1011.5
20260506104530 51 350 0.0 0.9 0.00 0.36 0.17 98 1011.3
20260506103014 51 350 0.0 0.0 0.00 0.36 0.17 98 1011.4
20260506101516 51 350 0.0 0.0 0.00 0.36 0.17 98 1011.1
20260506100020 51 350 0.0 0.0 0.00 0.36 0.17 98 1011.4
20260506094522 51 350 0.0 0.0 0.00 0.36 0.17 98 1011.4
20260506093029 51 350 0.0 0.0 0.00 0.36 0.17 98 1011.7
20260506091512 51 350 0.0 0.9 0.00 0.36 0.17 98 1011.7
20260506090023 51 350 0.0 0.0 0.00 0.36 0.17 98 1011.8
20260506084523 51 350 0.0 0.0 0.01 0.36 0.17 98 1011.9
20260506083006 51 350 0.0 0.9 0.02 0.36 0.17 98 1011.6
20260506081512 51 350 0.0 0.0 0.02 0.36 0.17 98 1011.6
20260506073026 52 350 0.0 0.0 0.04 0.34 0.15 97 1012.2
20260506071511 52 350 0.0 0.0 0.06 0.34 0.15 96 1012.0
20260506061509 52 346 0.0 5.2 0.07 0.28 0.09 90 1011.6
20260506044513 54 58 1.7 10.4 0.00 0.19 0.00 98 1010.9
20260506043018 53 233 0.0 0.9 0.00 0.19 0.00 98 1010.5
20260506041524 53 233 0.0 0.0 0.00 0.19 0.00 98 1010.3